Regional Weather Roundup
Issued by NWS

Home | Current Version | Previous Version | Graphics & Text | Print | Product List | Glossary On
Versions: 1 2 3 4 5 6 7 8 9 10 11 12 13 14 15 16 17 18 19 20 21 22 23 24 25 26 27
000
ASUS45 KSLC 081710
RWRUT

UTAH REGIONAL WEATHER ROUNDUP
NATIONAL WEATHER SERVICE SALT LAKE CITY UT
1000 AM MST THU DEC 08 2016

UTZ001>011-023>025-081800-

NORTHERN UTAH

CITY           SKY/WX    TMP DP  RH WIND       PRES   REMARKS
BRIGHAM CITY     N/A     19  11  71 N3        30.29S
DUGWAY         CLOUDY    22  10  60 NW2       30.27F
HILL AFB       PTSUNNY   17   4  55 E15       30.23F WCI   3
LOGAN          SUNNY     15  10  80 NW5       30.30R WCI   8
OGDEN          PTSUNNY   21   6  52 CALM      30.25S
SALT LAKE CITY PTSUNNY   27   9  46 SE6       30.25F WCI  20
TOOELE VALLEY  CLOUDY    27  16  63 CALM      30.26S
WENDOVER       CLOUDY    18  14  86 CALM      30.27S VSB 1/4
HEBER CITY     PTSUNNY   16   9  73 CALM      30.24R
WEST JORDAN    CLOUDY    24  14  65 E7        30.25S WCI  16

$$

UTZ011>015-024>027-081800-

CENTRAL/NORTHEAST UTAH

CITY           SKY/WX    TMP DP  RH WIND       PRES   REMARKS
PROVO AIRPORT  CLOUDY    25  12  58 S5        30.29R WCI  19
MOAB/CANYONLAN CLOUDY    26   6  42 VRB6      30.36R WCI  19
DELTA          CLOUDY    21   9  58 CALM      30.26R
PRICE          CLOUDY    20  -4  34 CALM      30.30R
RICHFIELD      CLOUDY    23  12  63 S5        30.28  WCI  17
ROOSEVELT      CLOUDY    18   5  57 N3        30.39S
VERNAL         CLOUDY    16   4  59 NE3       30.37R

$$

UTZ013>016-019>022-027-081800-

SOUTHERN UTAH

CITY           SKY/WX    TMP DP  RH WIND       PRES   REMARKS
BRYCE CANYON   CLOUDY    21   4  47 SE9       30.25R WCI  11
CEDAR CITY     CLOUDY    24  10  55 N5        30.24R WCI  18
MILFORD        CLOUDY    25   9  50 S12       30.24R WCI  14
ST GEORGE      PTSUNNY   34  12  40 SE6       30.33F WCI  29
HANKSVILLE     PTSUNNY   25   7  46 CALM      30.39S
KANAB          PTSUNNY   37   5  25 N7        30.35  WCI  32
BLANDING       PTSUNNY   28   1  30 S5        30.41R WCI  23

$$

REGIONAL REPORTS     COLORADO/ARIZONA

CITY           SKY/WX    TMP DP  RH WIND       PRES   REMARKS
CRAIG, CO      CLOUDY    10   0  63 E7        30.31F WCI  -1
GRAND JUNCTION CLOUDY    24   6  46 SE8       30.38R WCI  15
RIFLE, CO      CLOUDY    15   5  64 CALM      30.37F
MONTROSE, CO   CLOUDY    21   8  57 CALM      30.38R
CORTEZ, CO     CLOUDY    25   9  50 CALM      30.33R
COLORADO CITY  PTSUNNY   37  10  32 NE10      30.31R WCI  30
PAGE, AZ       SUNNY     35   3  26 CALM      30.34R
GRAND CANYON   SUNNY     37  19  48 CALM      30.28R
KINGMAN, AZ    SUNNY     41   7  24 E3        30.27R
FLAGSTAFF, AZ  SUNNY     34  23  64 SW5       30.27R WCI  30

$$

REGIONAL REPORTS    NEVADA/IDAHO/WYOMING

CITY           SKY/WX    TMP DP  RH WIND       PRES   REMARKS
LAS VEGAS, NV  MOSUNNY   46   7  20 CALM      30.29R
ELY, NY        CLOUDY    27  12  53 NE3       30.16R
ELKO, NV       LGT SNOW  21  16  81 NE5       30.13F VSB 3/4 WCI  15
POCATELLO, ID  CLOUDY     8   3  80 NE8       30.28S WCI  -4
BURLEY, ID     CLOUDY    12   7  80 NE17      30.22F WCI  -5
FORT BRIDGER,    N/A      0  -4  85 NE3       30.24S
EVANSTON, WY   CLOUDY     5  -4  66 E12       30.17R WCI -11
ROCK SPRINGS,  CLOUDY     0  -4  83 CALM      30.24S FOG
KEMMERER, WY     N/A      3  -4  72 NE3       30.20R

$$




USA.gov is the U.S. government's official web portal to all federal, state and local government web resources and services.